TimeCST,TemperatureF,Dew PointF,Humidity,Sea Level PressureIn,VisibilityMPH,Wind Direction,Wind SpeedMPH,Gust SpeedMPH,PrecipitationIn,Events,Conditions,WindDirDegrees,DateUTC
12:53 AM,43.0,28.0,56,30.37,10.0,NNW,8.1,-,N/A,,Clear,330,2013-11-27 06:53:00
1:53 AM,43.0,28.0,56,30.38,10.0,NW,4.6,-,N/A,,Clear,310,2013-11-27 07:53:00
2:53 AM,37.9,28.0,68,30.38,10.0,Calm,Calm,-,N/A,,Clear,0,2013-11-27 08:53:00
3:53 AM,36.0,28.9,76,30.39,10.0,Variable,4.6,-,N/A,,Clear,0,2013-11-27 09:53:00
4:53 AM,39.0,28.9,67,30.40,10.0,Calm,Calm,-,N/A,,Clear,0,2013-11-27 10:53:00
5:53 AM,37.0,28.0,70,30.42,10.0,North,3.5,-,N/A,,Clear,10,2013-11-27 11:53:00
6:53 AM,39.0,28.0,65,30.45,10.0,NNE,6.9,-,N/A,,Clear,20,2013-11-27 12:53:00
7:53 AM,39.9,27.0,60,30.48,10.0,North,9.2,-,N/A,,Clear,360,2013-11-27 13:53:00
8:53 AM,42.1,26.1,53,30.50,10.0,NNE,11.5,19.6,N/A,,Clear,20,2013-11-27 14:53:00
9:53 AM,44.1,21.0,40,30.50,10.0,North,12.7,-,N/A,,Clear,10,2013-11-27 15:53:00
10:53 AM,46.9,19.9,34,30.48,10.0,NNE,12.7,-,N/A,,Clear,30,2013-11-27 16:53:00
11:53 AM,50.0,18.0,28,30.45,10.0,NNE,11.5,-,N/A,,Clear,20,2013-11-27 17:53:00
12:53 PM,52.0,18.0,26,30.42,10.0,Variable,6.9,16.1,N/A,,Clear,0,2013-11-27 18:53:00
1:53 PM,54.0,17.1,23,30.38,10.0,NNE,4.6,-,N/A,,Clear,20,2013-11-27 19:53:00
2:53 PM,54.0,16.0,22,30.37,10.0,Variable,3.5,-,N/A,,Clear,0,2013-11-27 20:53:00
3:53 PM,55.9,16.0,21,30.36,10.0,North,4.6,-,N/A,,Clear,10,2013-11-27 21:53:00
4:53 PM,55.0,15.1,21,30.36,10.0,NNE,3.5,-,N/A,,Clear,30,2013-11-27 22:53:00
5:53 PM,48.9,21.0,33,30.37,10.0,ENE,3.5,-,N/A,,Clear,70,2013-11-27 23:53:00
6:53 PM,44.1,24.1,45,30.38,10.0,Calm,Calm,-,N/A,,Clear,0,2013-11-28 00:53:00
7:53 PM,39.9,28.0,63,30.39,10.0,Calm,Calm,-,N/A,,Clear,0,2013-11-28 01:53:00
8:53 PM,42.1,27.0,55,30.40,10.0,Calm,Calm,-,N/A,,Clear,0,2013-11-28 02:53:00
9:53 PM,39.9,28.0,63,30.40,10.0,Calm,Calm,-,N/A,,Clear,0,2013-11-28 03:53:00
10:53 PM,37.9,30.0,73,30.40,9.0,Calm,Calm,-,N/A,,Clear,0,2013-11-28 04:53:00
11:53 PM,37.0,28.9,73,30.40,10.0,Calm,Calm,-,N/A,,Clear,0,2013-11-28 05:53:00